#datetime,building,power
2022-10-23T00:00:00,pth,2.40
2022-10-23T00:01:00,pth,1.20
2022-10-23T00:03:00,pth,2.40
2022-10-23T00:05:00,pth,3.60
2022-10-23T00:07:00,pth,2.40
2022-10-23T00:08:00,pth,1.20
2022-10-23T00:10:00,pth,3.60
2022-10-23T00:12:00,pth,2.40
2022-10-23T00:14:00,pth,1.20
2022-10-23T00:16:00,pth,2.40
2022-10-23T00:17:00,pth,1.20
2022-10-23T00:19:00,pth,2.40
2022-10-23T00:21:00,pth,3.60
2022-10-23T00:23:00,pth,3.60
2022-10-23T00:25:00,pth,4.80
2022-10-23T00:27:00,pth,2.40
2022-10-23T00:29:00,pth,2.40
2022-10-23T00:31:00,pth,2.40
2022-10-23T00:32:00,pth,1.20
2022-10-23T00:34:00,pth,3.60
2022-10-23T00:36:00,pth,2.40
2022-10-23T00:37:00,pth,1.20
2022-10-23T00:39:00,pth,2.40
2022-10-23T00:40:00,pth,2.40
2022-10-23T00:42:00,pth,2.40
2022-10-23T00:44:00,pth,4.80
2022-10-23T00:46:00,pth,13.20
2022-10-23T00:48:00,pth,13.20
2022-10-23T00:49:00,pth,6.00
2022-10-23T00:51:00,pth,14.40
2022-10-23T00:53:00,pth,8.40
2022-10-23T00:55:00,pth,14.40
2022-10-23T00:57:00,pth,8.40
2022-10-23T00:59:00,pth,9.60
2022-10-23T01:00:00,pth,6.00
2022-10-23T01:02:00,pth,10.80
2022-10-23T01:04:00,pth,12.00
2022-10-23T01:05:00,pth,2.40
2022-10-23T01:07:00,pth,13.20
2022-10-23T01:08:00,pth,2.40
2022-10-23T01:10:00,pth,12.00
2022-10-23T01:12:00,pth,9.60
2022-10-23T01:14:00,pth,12.00
2022-10-23T01:16:00,pth,15.60
2022-10-23T01:18:00,pth,15.60
2022-10-23T01:19:00,pth,4.80
2022-10-23T01:21:00,pth,16.80
2022-10-23T01:23:00,pth,13.20
2022-10-23T01:24:00,pth,8.40
2022-10-23T01:26:00,pth,12.00
2022-10-23T01:27:00,pth,7.20
2022-10-23T01:29:00,pth,13.20
2022-10-23T01:31:00,pth,10.80
2022-10-23T01:32:00,pth,7.20
2022-10-23T01:34:00,pth,10.80
2022-10-23T01:36:00,pth,10.80
2022-10-23T01:37:00,pth,7.20
2022-10-23T01:39:00,pth,9.60
2022-10-23T01:41:00,pth,8.40
2022-10-23T01:43:00,pth,3.60
2022-10-23T01:45:00,pth,3.60
2022-10-23T01:46:00,pth,1.20
2022-10-23T01:48:00,pth,2.40
2022-10-23T01:49:00,pth,1.20
2022-10-23T01:51:00,pth,3.60
2022-10-23T01:52:00,pth,1.20
2022-10-23T01:54:00,pth,2.40
2022-10-23T01:56:00,pth,2.40
2022-10-23T01:57:00,pth,1.20
2022-10-23T01:59:00,pth,2.40
2022-10-23T02:00:00,pth,1.20
2022-10-23T02:02:00,pth,2.40
2022-10-23T02:03:00,pth,1.20
2022-10-23T02:05:00,pth,2.40
2022-10-23T02:07:00,pth,2.40
2022-10-23T02:08:00,pth,1.20
2022-10-23T02:10:00,pth,2.40
2022-10-23T02:11:00,pth,1.20
2022-10-23T02:13:00,pth,2.40
2022-10-23T02:14:00,pth,1.20
2022-10-23T02:17:00,pth,2.40
2022-10-23T02:18:00,pth,2.40
2022-10-23T02:19:00,pth,1.20
2022-10-23T02:20:00,pth,2.40
2022-10-23T02:22:00,pth,1.20
2022-10-23T02:24:00,pth,2.40
2022-10-23T02:26:00,pth,2.40
2022-10-23T02:28:00,pth,2.40
2022-10-23T02:30:00,pth,2.40
2022-10-23T02:31:00,pth,1.20
2022-10-23T02:33:00,pth,2.40
2022-10-23T02:35:00,pth,1.20
2022-10-23T02:36:00,pth,1.20
2022-10-23T02:38:00,pth,2.40
2022-10-23T02:40:00,pth,2.40
2022-10-23T02:43:00,pth,2.40
2022-10-23T02:45:00,pth,2.40
2022-10-23T02:46:00,pth,1.20
2022-10-23T02:48:00,pth,2.40
2022-10-23T02:50:00,pth,2.40
2022-10-23T02:53:00,pth,2.40
2022-10-23T02:54:00,pth,1.20
2022-10-23T02:56:00,pth,2.40
2022-10-23T02:57:00,pth,1.20
2022-10-23T02:59:00,pth,1.20
2022-10-23T03:01:00,pth,2.40
2022-10-23T03:03:00,pth,2.40
2022-10-23T03:05:00,pth,2.40
2022-10-23T03:07:00,pth,2.40
2022-10-23T03:09:00,pth,2.40
2022-10-23T03:10:00,pth,1.20
2022-10-23T03:12:00,pth,2.40
2022-10-23T03:13:00,pth,1.20
2022-10-23T03:15:00,pth,2.40
2022-10-23T03:17:00,pth,2.40
2022-10-23T03:19:00,pth,1.20
2022-10-23T03:20:00,pth,1.20
2022-10-23T03:22:00,pth,2.40
2022-10-23T03:24:00,pth,2.40
2022-10-23T03:26:00,pth,2.40
2022-10-23T03:28:00,pth,1.20
2022-10-23T03:30:00,pth,2.40
2022-10-23T03:32:00,pth,1.20
2022-10-23T03:33:00,pth,1.20
2022-10-23T03:35:00,pth,2.40
2022-10-23T03:37:00,pth,1.20
2022-10-23T03:38:00,pth,1.20
2022-10-23T03:40:00,pth,2.40
2022-10-23T03:42:00,pth,2.40
2022-10-23T03:44:00,pth,2.40
2022-10-23T03:46:00,pth,2.40
2022-10-23T03:48:00,pth,1.20
2022-10-23T03:50:00,pth,2.40
2022-10-23T03:52:00,pth,2.40
2022-10-23T03:54:00,pth,2.40
2022-10-23T03:56:00,pth,2.40
2022-10-23T03:58:00,pth,1.20
2022-10-23T04:00:00,pth,2.40
2022-10-23T04:02:00,pth,2.40
2022-10-23T04:04:00,pth,1.20
2022-10-23T04:06:00,pth,2.40
2022-10-23T04:08:00,pth,2.40
2022-10-23T04:10:00,pth,1.20
2022-10-23T04:11:00,pth,1.20
2022-10-23T04:13:00,pth,2.40
2022-10-23T04:15:00,pth,1.20
2022-10-23T04:17:00,pth,2.40
2022-10-23T04:19:00,pth,2.40
2022-10-23T04:21:00,pth,1.20
2022-10-23T04:23:00,pth,2.40
2022-10-23T04:25:00,pth,2.40
2022-10-23T04:27:00,pth,2.40
2022-10-23T04:28:00,pth,1.20
2022-10-23T04:29:00,pth,1.20
2022-10-23T04:31:00,pth,1.20
2022-10-23T04:33:00,pth,2.40
2022-10-23T04:35:00,pth,2.40
2022-10-23T04:36:00,pth,1.20
2022-10-23T04:38:00,pth,1.20
2022-10-23T04:40:00,pth,2.40
2022-10-23T04:42:00,pth,2.40
2022-10-23T04:44:00,pth,2.40
2022-10-23T04:45:00,pth,1.20
2022-10-23T04:47:00,pth,2.40
2022-10-23T04:49:00,pth,2.40
2022-10-23T04:50:00,pth,1.20
2022-10-23T04:52:00,pth,1.20
2022-10-23T04:54:00,pth,2.40
2022-10-23T04:56:00,pth,2.40
2022-10-23T04:57:00,pth,1.20
2022-10-23T04:59:00,pth,1.20
2022-10-23T05:01:00,pth,2.40
2022-10-23T05:03:00,pth,2.40
2022-10-23T05:05:00,pth,2.40
2022-10-23T05:06:00,pth,1.20
2022-10-23T05:08:00,pth,1.20
2022-10-23T05:09:00,pth,1.20
2022-10-23T05:11:00,pth,2.40
2022-10-23T05:13:00,pth,2.40
2022-10-23T05:16:00,pth,2.40
2022-10-23T05:18:00,pth,2.40
2022-10-23T05:20:00,pth,1.20
2022-10-23T05:21:00,pth,1.20
2022-10-23T05:23:00,pth,2.40
2022-10-23T05:25:00,pth,2.40
2022-10-23T05:27:00,pth,1.20
2022-10-23T05:29:00,pth,2.40
2022-10-23T05:31:00,pth,1.20
2022-10-23T05:32:00,pth,1.20
2022-10-23T05:34:00,pth,2.40
2022-10-23T05:35:00,pth,1.20
2022-10-23T05:37:00,pth,2.40
2022-10-23T05:39:00,pth,1.20
2022-10-23T05:41:00,pth,2.40
2022-10-23T05:43:00,pth,2.40
2022-10-23T05:44:00,pth,1.20
2022-10-23T05:46:00,pth,2.40
2022-10-23T05:48:00,pth,1.20
2022-10-23T05:50:00,pth,2.40
2022-10-23T05:51:00,pth,1.20
2022-10-23T05:52:00,pth,1.20
2022-10-23T05:54:00,pth,1.20
2022-10-23T05:56:00,pth,2.40
2022-10-23T05:58:00,pth,2.40
2022-10-23T06:00:00,pth,2.40
2022-10-23T06:03:00,pth,2.40
2022-10-23T06:05:00,pth,2.40
2022-10-23T06:07:00,pth,2.40
2022-10-23T06:09:00,pth,1.20
2022-10-23T06:11:00,pth,2.40
2022-10-23T06:12:00,pth,1.20
2022-10-23T06:14:00,pth,1.20
2022-10-23T06:16:00,pth,2.40
2022-10-23T06:17:00,pth,1.20
2022-10-23T06:19:00,pth,2.40
2022-10-23T06:21:00,pth,2.40
2022-10-23T06:23:00,pth,2.40
2022-10-23T06:25:00,pth,2.40
2022-10-23T06:26:00,pth,1.20
2022-10-23T06:27:00,pth,1.20
2022-10-23T06:29:00,pth,2.40
2022-10-23T06:31:00,pth,1.20
2022-10-23T06:33:00,pth,2.40
2022-10-23T06:35:00,pth,2.40
2022-10-23T06:37:00,pth,2.40
2022-10-23T06:38:00,pth,1.20
2022-10-23T06:40:00,pth,2.40
2022-10-23T06:42:00,pth,2.40
2022-10-23T06:43:00,pth,1.20
2022-10-23T06:45:00,pth,1.20
2022-10-23T06:47:00,pth,2.40
2022-10-23T06:49:00,pth,1.20
2022-10-23T06:51:00,pth,2.40
2022-10-23T06:52:00,pth,1.20
2022-10-23T06:54:00,pth,1.20
2022-10-23T06:56:00,pth,2.40
2022-10-23T06:57:00,pth,1.20
2022-10-23T06:59:00,pth,1.20
2022-10-23T07:01:00,pth,2.40
2022-10-23T07:03:00,pth,2.40
2022-10-23T07:05:00,pth,1.20
2022-10-23T07:06:00,pth,1.20
2022-10-23T07:07:00,pth,2.40
2022-10-23T07:09:00,pth,2.40
2022-10-23T07:11:00,pth,2.40
2022-10-23T07:12:00,pth,1.20
2022-10-23T07:14:00,pth,2.40
2022-10-23T07:16:00,pth,1.20
2022-10-23T07:18:00,pth,2.40
2022-10-23T07:19:00,pth,1.20
2022-10-23T07:21:00,pth,2.40
2022-10-23T07:23:00,pth,2.40
2022-10-23T07:25:00,pth,2.40
2022-10-23T07:27:00,pth,1.20
2022-10-23T07:29:00,pth,2.40
2022-10-23T07:31:00,pth,2.40
2022-10-23T07:34:00,pth,2.40
2022-10-23T07:36:00,pth,2.40
2022-10-23T07:38:00,pth,2.40
2022-10-23T07:40:00,pth,2.40
2022-10-23T07:42:00,pth,2.40
2022-10-23T07:43:00,pth,1.20
2022-10-23T07:44:00,pth,1.20
2022-10-23T07:46:00,pth,2.40
2022-10-23T07:47:00,pth,1.20
2022-10-23T07:49:00,pth,2.40
2022-10-23T07:51:00,pth,1.20
2022-10-23T07:53:00,pth,2.40
2022-10-23T07:55:00,pth,1.20
2022-10-23T07:57:00,pth,2.40
2022-10-23T07:59:00,pth,1.20
2022-10-23T08:00:00,pth,1.20
2022-10-23T08:02:00,pth,2.40
2022-10-23T08:05:00,pth,2.40
2022-10-23T08:07:00,pth,1.20
2022-10-23T08:09:00,pth,2.40
2022-10-23T08:11:00,pth,1.20
2022-10-23T08:13:00,pth,2.40
2022-10-23T08:14:00,pth,1.20
2022-10-23T08:16:00,pth,1.20
2022-10-23T08:18:00,pth,2.40
2022-10-23T08:20:00,pth,1.20
2022-10-23T08:22:00,pth,2.40
2022-10-23T08:24:00,pth,2.40
2022-10-23T08:26:00,pth,1.20
2022-10-23T08:28:00,pth,2.40
2022-10-23T08:29:00,pth,1.20
2022-10-23T08:31:00,pth,2.40
2022-10-23T08:32:00,pth,1.20
2022-10-23T08:34:00,pth,1.20
2022-10-23T08:35:00,pth,1.20
2022-10-23T08:37:00,pth,2.40
2022-10-23T08:39:00,pth,1.20
2022-10-23T08:41:00,pth,2.40
2022-10-23T08:43:00,pth,1.20
2022-10-23T08:45:00,pth,2.40
2022-10-23T08:48:00,pth,1.20
2022-10-23T08:49:00,pth,1.20
2022-10-23T08:51:00,pth,1.20
2022-10-23T08:53:00,pth,1.20
2022-10-23T08:55:00,pth,2.40
2022-10-23T08:57:00,pth,1.20
2022-10-23T08:58:00,pth,1.20
2022-10-23T09:01:00,pth,2.40
2022-10-23T09:03:00,pth,1.20
2022-10-23T09:05:00,pth,1.20
2022-10-23T09:07:00,pth,2.40
2022-10-23T09:08:00,pth,1.20
2022-10-23T09:10:00,pth,2.40
2022-10-23T09:12:00,pth,1.20
2022-10-23T09:14:00,pth,1.20
2022-10-23T09:16:00,pth,2.40
2022-10-23T09:18:00,pth,2.40
2022-10-23T09:20:00,pth,2.40
2022-10-23T09:21:00,pth,1.20
2022-10-23T09:23:00,pth,2.40
2022-10-23T09:25:00,pth,1.20
2022-10-23T09:27:00,pth,1.20
2022-10-23T09:29:00,pth,2.40
2022-10-23T09:32:00,pth,2.40
2022-10-23T09:34:00,pth,1.20
2022-10-23T09:35:00,pth,1.20
2022-10-23T09:37:00,pth,1.20
2022-10-23T09:39:00,pth,2.40
2022-10-23T09:41:00,pth,2.40
2022-10-23T09:43:00,pth,2.40
2022-10-23T09:44:00,pth,1.20
2022-10-23T09:46:00,pth,3.60
2022-10-23T09:48:00,pth,3.60
2022-10-23T09:50:00,pth,2.40
2022-10-23T09:52:00,pth,2.40
2022-10-23T09:54:00,pth,1.20
2022-10-23T09:56:00,pth,2.40
2022-10-23T09:58:00,pth,2.40
2022-10-23T10:00:00,pth,6.00
2022-10-23T10:02:00,pth,16.80
2022-10-23T10:04:00,pth,14.40
2022-10-23T10:06:00,pth,14.40
2022-10-23T10:07:00,pth,7.20
2022-10-23T10:09:00,pth,13.20
2022-10-23T10:11:00,pth,13.20
2022-10-23T10:13:00,pth,14.40
2022-10-23T10:15:00,pth,14.40
2022-10-23T10:17:00,pth,14.40
2022-10-23T10:18:00,pth,7.20
2022-10-23T10:20:00,pth,14.40
2022-10-23T10:21:00,pth,7.20
2022-10-23T10:23:00,pth,14.40
2022-10-23T10:24:00,pth,7.20
2022-10-23T10:26:00,pth,13.20
2022-10-23T10:28:00,pth,14.40
2022-10-23T10:30:00,pth,13.20
2022-10-23T10:32:00,pth,14.40
2022-10-23T10:33:00,pth,7.20
2022-10-23T10:35:00,pth,14.40
2022-10-23T10:37:00,pth,13.20
2022-10-23T10:39:00,pth,14.40
2022-10-23T10:41:00,pth,14.40
2022-10-23T10:43:00,pth,14.40
2022-10-23T10:45:00,pth,13.20
2022-10-23T10:47:00,pth,14.40
2022-10-23T10:49:00,pth,14.40
2022-10-23T10:51:00,pth,13.20
2022-10-23T10:53:00,pth,14.40
2022-10-23T10:55:00,pth,14.40
2022-10-23T10:57:00,pth,9.60
2022-10-23T10:59:00,pth,3.60
2022-10-23T11:02:00,pth,2.40
2022-10-23T11:03:00,pth,3.60
2022-10-23T11:05:00,pth,3.60
2022-10-23T11:07:00,pth,2.40
2022-10-23T11:09:00,pth,2.40
2022-10-23T11:10:00,pth,1.20
2022-10-23T11:12:00,pth,3.60
2022-10-23T11:14:00,pth,2.40
2022-10-23T11:15:00,pth,1.20
2022-10-23T11:17:00,pth,2.40
2022-10-23T11:18:00,pth,2.40
2022-10-23T11:20:00,pth,2.40
2022-10-23T11:22:00,pth,2.40
2022-10-23T11:23:00,pth,1.20
2022-10-23T11:25:00,pth,2.40
2022-10-23T11:27:00,pth,2.40
2022-10-23T11:29:00,pth,1.20
2022-10-23T11:30:00,pth,1.20
2022-10-23T11:32:00,pth,1.20
2022-10-23T11:34:00,pth,1.20
2022-10-23T11:37:00,pth,2.40
2022-10-23T11:39:00,pth,1.20
2022-10-23T11:41:00,pth,1.20
2022-10-23T11:43:00,pth,1.20
2022-10-23T11:45:00,pth,1.20
2022-10-23T11:47:00,pth,1.20
2022-10-23T11:49:00,pth,1.20
2022-10-23T11:50:00,pth,1.20
2022-10-23T11:52:00,pth,1.20
2022-10-23T11:54:00,pth,1.20
2022-10-23T11:55:00,pth,1.20
2022-10-23T11:57:00,pth,2.40
2022-10-23T11:59:00,pth,1.20
2022-10-23T12:00:00,pth,1.20
2022-10-23T12:02:00,pth,2.40
2022-10-23T12:04:00,pth,1.20
2022-10-23T12:06:00,pth,2.40
2022-10-23T12:08:00,pth,2.40
2022-10-23T12:10:00,pth,2.40
2022-10-23T12:12:00,pth,1.20
2022-10-23T12:14:00,pth,2.40
2022-10-23T12:17:00,pth,2.40
2022-10-23T12:19:00,pth,1.20
2022-10-23T12:21:00,pth,1.20
2022-10-23T12:23:00,pth,2.40
2022-10-23T12:25:00,pth,1.20
2022-10-23T12:27:00,pth,1.20
2022-10-23T12:29:00,pth,1.20
2022-10-23T12:31:00,pth,1.20
2022-10-23T12:32:00,pth,1.20
2022-10-23T12:34:00,pth,1.20
2022-10-23T12:36:00,pth,2.40
2022-10-23T12:38:00,pth,2.40
2022-10-23T12:41:00,pth,2.40
2022-10-23T12:43:00,pth,1.20
2022-10-23T12:45:00,pth,2.40
2022-10-23T12:47:00,pth,1.20
2022-10-23T12:49:00,pth,2.40
2022-10-23T12:50:00,pth,1.20
2022-10-23T12:51:00,pth,1.20
2022-10-23T12:53:00,pth,1.20
2022-10-23T12:54:00,pth,1.20
2022-10-23T12:56:00,pth,2.40
2022-10-23T12:58:00,pth,2.40
2022-10-23T13:00:00,pth,2.40
2022-10-23T13:02:00,pth,2.40
2022-10-23T13:04:00,pth,2.40
2022-10-23T13:06:00,pth,1.20
2022-10-23T13:07:00,pth,1.20
2022-10-23T13:09:00,pth,2.40
2022-10-23T13:10:00,pth,1.20
2022-10-23T13:12:00,pth,2.40
2022-10-23T13:13:00,pth,2.40
2022-10-23T13:15:00,pth,2.40
2022-10-23T13:17:00,pth,3.60
2022-10-23T13:19:00,pth,2.40
2022-10-23T13:20:00,pth,1.20
2022-10-23T13:22:00,pth,3.60
2022-10-23T13:24:00,pth,2.40
2022-10-23T13:26:00,pth,1.20
2022-10-23T13:28:00,pth,2.40
2022-10-23T13:30:00,pth,2.40
2022-10-23T13:32:00,pth,3.60
2022-10-23T13:33:00,pth,3.60
2022-10-23T13:34:00,pth,3.60
2022-10-23T13:36:00,pth,2.40
2022-10-23T13:37:00,pth,1.20
2022-10-23T13:39:00,pth,1.20
2022-10-23T13:41:00,pth,2.40
2022-10-23T13:44:00,pth,1.20
2022-10-23T13:46:00,pth,2.40
2022-10-23T13:48:00,pth,10.80
2022-10-23T13:50:00,pth,12.00
2022-10-23T13:52:00,pth,13.20
2022-10-23T13:53:00,pth,6.00
2022-10-23T13:55:00,pth,12.00
2022-10-23T13:56:00,pth,6.00
2022-10-23T13:58:00,pth,13.20
2022-10-23T14:00:00,pth,12.00
2022-10-23T14:02:00,pth,12.00
2022-10-23T14:03:00,pth,7.20
2022-10-23T14:05:00,pth,12.00
2022-10-23T14:07:00,pth,13.20
2022-10-23T14:08:00,pth,6.00
2022-10-23T14:10:00,pth,12.00
2022-10-23T14:12:00,pth,13.20
2022-10-23T14:14:00,pth,12.00
2022-10-23T14:16:00,pth,13.20
2022-10-23T14:18:00,pth,12.00
2022-10-23T14:20:00,pth,13.20
2022-10-23T14:22:00,pth,12.00
2022-10-23T14:24:00,pth,14.40
2022-10-23T14:26:00,pth,7.20
2022-10-23T14:28:00,pth,13.20
2022-10-23T14:30:00,pth,9.60
2022-10-23T14:32:00,pth,9.60
2022-10-23T14:33:00,pth,6.00
2022-10-23T14:35:00,pth,8.40
2022-10-23T14:36:00,pth,2.40
2022-10-23T14:38:00,pth,15.60
2022-10-23T14:40:00,pth,9.60
2022-10-23T14:42:00,pth,13.20
2022-10-23T14:44:00,pth,13.20
2022-10-23T14:45:00,pth,2.40
2022-10-23T14:47:00,pth,6.00
2022-10-23T14:49:00,pth,4.80
2022-10-23T14:51:00,pth,1.20
2022-10-23T14:53:00,pth,2.40
2022-10-23T14:54:00,pth,1.20
2022-10-23T14:56:00,pth,2.40
2022-10-23T14:58:00,pth,2.40
2022-10-23T15:00:00,pth,2.40
2022-10-23T15:02:00,pth,2.40
2022-10-23T15:04:00,pth,2.40
2022-10-23T15:06:00,pth,1.20
2022-10-23T15:07:00,pth,1.20
2022-10-23T15:09:00,pth,2.40
2022-10-23T15:10:00,pth,1.20
2022-10-23T15:12:00,pth,2.40
2022-10-23T15:14:00,pth,2.40
2022-10-23T15:16:00,pth,1.20
2022-10-23T15:18:00,pth,2.40
2022-10-23T15:20:00,pth,2.40
2022-10-23T15:22:00,pth,3.60
2022-10-23T15:24:00,pth,3.60
2022-10-23T15:26:00,pth,2.40
2022-10-23T15:28:00,pth,2.40
2022-10-23T15:30:00,pth,1.20
2022-10-23T15:31:00,pth,1.20
2022-10-23T15:33:00,pth,2.40
2022-10-23T15:35:00,pth,1.20
2022-10-23T15:36:00,pth,1.20
2022-10-23T15:38:00,pth,2.40
2022-10-23T15:39:00,pth,1.20
2022-10-23T15:41:00,pth,1.20
2022-10-23T15:43:00,pth,2.40
2022-10-23T15:45:00,pth,2.40
2022-10-23T15:47:00,pth,8.40
2022-10-23T15:49:00,pth,7.20
2022-10-23T15:50:00,pth,3.60
2022-10-23T15:52:00,pth,7.20
2022-10-23T15:54:00,pth,6.00
2022-10-23T15:55:00,pth,3.60
2022-10-23T15:56:00,pth,2.40
2022-10-23T15:58:00,pth,1.20
2022-10-23T16:00:00,pth,3.60
2022-10-23T16:01:00,pth,3.60
2022-10-23T16:03:00,pth,4.80
2022-10-23T16:05:00,pth,2.40
2022-10-23T16:07:00,pth,2.40
2022-10-23T16:08:00,pth,3.60
2022-10-23T16:11:00,pth,10.80
2022-10-23T16:13:00,pth,7.20
2022-10-23T16:15:00,pth,6.00
2022-10-23T16:18:00,pth,2.40
2022-10-23T16:20:00,pth,7.20
2022-10-23T16:21:00,pth,2.40
2022-10-23T16:23:00,pth,2.40
2022-10-23T16:25:00,pth,1.20
2022-10-23T16:26:00,pth,1.20
2022-10-23T16:28:00,pth,2.40
2022-10-23T16:29:00,pth,1.20
2022-10-23T16:31:00,pth,2.40
2022-10-23T16:32:00,pth,1.20
2022-10-23T16:34:00,pth,1.20
2022-10-23T16:36:00,pth,2.40
2022-10-23T16:37:00,pth,1.20
2022-10-23T16:39:00,pth,2.40
2022-10-23T16:41:00,pth,2.40
2022-10-23T16:43:00,pth,2.40
2022-10-23T16:46:00,pth,2.40
2022-10-23T16:47:00,pth,1.20
2022-10-23T16:49:00,pth,1.20
2022-10-23T16:51:00,pth,2.40
2022-10-23T16:53:00,pth,1.20
2022-10-23T16:56:00,pth,2.40
2022-10-23T16:58:00,pth,1.20
2022-10-23T17:00:00,pth,1.20
2022-10-23T17:01:00,pth,1.20
2022-10-23T17:03:00,pth,1.20
2022-10-23T17:05:00,pth,2.40
2022-10-23T17:06:00,pth,1.20
2022-10-23T17:08:00,pth,2.40
2022-10-23T17:09:00,pth,1.20
2022-10-23T17:11:00,pth,2.40
2022-10-23T17:13:00,pth,2.40
2022-10-23T17:14:00,pth,1.20
2022-10-23T17:16:00,pth,1.20
2022-10-23T17:18:00,pth,2.40
2022-10-23T17:20:00,pth,2.40
2022-10-23T17:22:00,pth,3.60
2022-10-23T17:24:00,pth,2.40
2022-10-23T17:26:00,pth,2.40
2022-10-23T17:28:00,pth,2.40
2022-10-23T17:30:00,pth,2.40
2022-10-23T17:32:00,pth,2.40
2022-10-23T17:34:00,pth,2.40
2022-10-23T17:36:00,pth,2.40
2022-10-23T17:37:00,pth,1.20
2022-10-23T17:39:00,pth,2.40
2022-10-23T17:40:00,pth,1.20
2022-10-23T17:42:00,pth,1.20
2022-10-23T17:45:00,pth,2.40
2022-10-23T17:47:00,pth,2.40
2022-10-23T17:48:00,pth,1.20
2022-10-23T17:50:00,pth,1.20
2022-10-23T17:51:00,pth,1.20
2022-10-23T17:52:00,pth,2.40
2022-10-23T17:53:00,pth,1.20
2022-10-23T17:54:00,pth,1.20
2022-10-23T17:56:00,pth,2.40
2022-10-23T17:58:00,pth,2.40
2022-10-23T18:00:00,pth,2.40
2022-10-23T18:02:00,pth,2.40
2022-10-23T18:04:00,pth,2.40
2022-10-23T18:06:00,pth,2.40
2022-10-23T18:08:00,pth,2.40
2022-10-23T18:10:00,pth,2.40
2022-10-23T18:11:00,pth,1.20
2022-10-23T18:13:00,pth,1.20
2022-10-23T18:15:00,pth,2.40
2022-10-23T18:17:00,pth,1.20
2022-10-23T18:19:00,pth,2.40
2022-10-23T18:20:00,pth,1.20
2022-10-23T18:22:00,pth,2.40
2022-10-23T18:23:00,pth,1.20
2022-10-23T18:25:00,pth,1.20
2022-10-23T18:26:00,pth,1.20
2022-10-23T18:28:00,pth,2.40
2022-10-23T18:30:00,pth,2.40
2022-10-23T18:32:00,pth,2.40
2022-10-23T18:34:00,pth,2.40
2022-10-23T18:36:00,pth,1.20
2022-10-23T18:38:00,pth,2.40
2022-10-23T18:39:00,pth,1.20
2022-10-23T18:41:00,pth,2.40
2022-10-23T18:43:00,pth,1.20
2022-10-23T18:45:00,pth,2.40
2022-10-23T18:47:00,pth,2.40
2022-10-23T18:48:00,pth,1.20
2022-10-23T18:50:00,pth,2.40
2022-10-23T18:52:00,pth,2.40
2022-10-23T18:54:00,pth,2.40
2022-10-23T18:56:00,pth,1.20
2022-10-23T18:58:00,pth,2.40
2022-10-23T19:00:00,pth,2.40
2022-10-23T19:02:00,pth,2.40
2022-10-23T19:03:00,pth,1.20
2022-10-23T19:05:00,pth,1.20
2022-10-23T19:06:00,pth,1.20
2022-10-23T19:08:00,pth,1.20
2022-10-23T19:10:00,pth,2.40
2022-10-23T19:11:00,pth,1.20
2022-10-23T19:13:00,pth,2.40
2022-10-23T19:15:00,pth,1.20
2022-10-23T19:16:00,pth,1.20
2022-10-23T19:18:00,pth,3.60
2022-10-23T19:20:00,pth,4.80
2022-10-23T19:22:00,pth,4.80
2022-10-23T19:23:00,pth,1.20
2022-10-23T19:25:00,pth,6.00
2022-10-23T19:26:00,pth,1.20
2022-10-23T19:28:00,pth,1.20
2022-10-23T19:29:00,pth,1.20
2022-10-23T19:31:00,pth,2.40
2022-10-23T19:32:00,pth,1.20
2022-10-23T19:34:00,pth,2.40
2022-10-23T19:36:00,pth,1.20
2022-10-23T19:37:00,pth,1.20
2022-10-23T19:39:00,pth,2.40
2022-10-23T19:41:00,pth,1.20
2022-10-23T19:43:00,pth,2.40
2022-10-23T19:45:00,pth,2.40
2022-10-23T19:47:00,pth,2.40
2022-10-23T19:49:00,pth,2.40
2022-10-23T19:51:00,pth,2.40
2022-10-23T19:53:00,pth,1.20
2022-10-23T19:55:00,pth,2.40
2022-10-23T19:56:00,pth,1.20
2022-10-23T19:58:00,pth,2.40
2022-10-23T20:00:00,pth,2.40
2022-10-23T20:02:00,pth,2.40
2022-10-23T20:03:00,pth,1.20
2022-10-23T20:05:00,pth,1.20
2022-10-23T20:07:00,pth,2.40
2022-10-23T20:09:00,pth,2.40
2022-10-23T20:11:00,pth,2.40
2022-10-23T20:13:00,pth,2.40
2022-10-23T20:15:00,pth,2.40
2022-10-23T20:16:00,pth,1.20
2022-10-23T20:19:00,pth,2.40
2022-10-23T20:20:00,pth,2.40
2022-10-23T20:22:00,pth,2.40
2022-10-23T20:24:00,pth,2.40
2022-10-23T20:26:00,pth,2.40
2022-10-23T20:28:00,pth,2.40
2022-10-23T20:30:00,pth,2.40
2022-10-23T20:32:00,pth,1.20
2022-10-23T20:33:00,pth,1.20
2022-10-23T20:35:00,pth,2.40
2022-10-23T20:37:00,pth,2.40
2022-10-23T20:39:00,pth,1.20
2022-10-23T20:41:00,pth,2.40
2022-10-23T20:43:00,pth,2.40
2022-10-23T20:45:00,pth,1.20
2022-10-23T20:46:00,pth,1.20
2022-10-23T20:47:00,pth,1.20
2022-10-23T20:48:00,pth,1.20
2022-10-23T20:50:00,pth,2.40
2022-10-23T20:52:00,pth,3.60
2022-10-23T20:54:00,pth,2.40
2022-10-23T20:56:00,pth,2.40
2022-10-23T20:58:00,pth,2.40
2022-10-23T21:00:00,pth,2.40
2022-10-23T21:01:00,pth,1.20
2022-10-23T21:02:00,pth,1.20
2022-10-23T21:04:00,pth,2.40
2022-10-23T21:06:00,pth,3.60
2022-10-23T21:08:00,pth,1.20
2022-10-23T21:10:00,pth,2.40
2022-10-23T21:12:00,pth,2.40
2022-10-23T21:14:00,pth,2.40
2022-10-23T21:16:00,pth,2.40
2022-10-23T21:18:00,pth,2.40
2022-10-23T21:20:00,pth,3.60
2022-10-23T21:22:00,pth,6.00
2022-10-23T21:24:00,pth,4.80
2022-10-23T21:26:00,pth,3.60
2022-10-23T21:28:00,pth,2.40
2022-10-23T21:30:00,pth,2.40
2022-10-23T21:32:00,pth,2.40
2022-10-23T21:34:00,pth,3.60
2022-10-23T21:36:00,pth,2.40
2022-10-23T21:38:00,pth,2.40
2022-10-23T21:40:00,pth,2.40
2022-10-23T21:42:00,pth,2.40
2022-10-23T21:44:00,pth,2.40
2022-10-23T21:46:00,pth,2.40
2022-10-23T21:48:00,pth,2.40
2022-10-23T21:50:00,pth,2.40
2022-10-23T21:52:00,pth,2.40
2022-10-23T21:54:00,pth,1.20
2022-10-23T21:56:00,pth,2.40
2022-10-23T21:58:00,pth,2.40
2022-10-23T22:00:00,pth,2.40
2022-10-23T22:02:00,pth,2.40
2022-10-23T22:03:00,pth,1.20
2022-10-23T22:04:00,pth,1.20
2022-10-23T22:06:00,pth,2.40
2022-10-23T22:08:00,pth,2.40
2022-10-23T22:10:00,pth,2.40
2022-10-23T22:12:00,pth,2.40
2022-10-23T22:14:00,pth,2.40
2022-10-23T22:16:00,pth,2.40
2022-10-23T22:18:00,pth,2.40
2022-10-23T22:20:00,pth,2.40
2022-10-23T22:22:00,pth,2.40
2022-10-23T22:23:00,pth,1.20
2022-10-23T22:25:00,pth,2.40
2022-10-23T22:26:00,pth,1.20
2022-10-23T22:28:00,pth,2.40
2022-10-23T22:30:00,pth,2.40
2022-10-23T22:32:00,pth,2.40
2022-10-23T22:34:00,pth,2.40
2022-10-23T22:36:00,pth,3.60
2022-10-23T22:38:00,pth,2.40
2022-10-23T22:40:00,pth,2.40
2022-10-23T22:42:00,pth,2.40
2022-10-23T22:44:00,pth,2.40
2022-10-23T22:46:00,pth,2.40
2022-10-23T22:48:00,pth,2.40
2022-10-23T22:50:00,pth,2.40
2022-10-23T22:52:00,pth,2.40
2022-10-23T22:54:00,pth,2.40
2022-10-23T22:55:00,pth,1.20
2022-10-23T22:57:00,pth,2.40
2022-10-23T22:59:00,pth,2.40
2022-10-23T23:01:00,pth,2.40
2022-10-23T23:03:00,pth,2.40
2022-10-23T23:05:00,pth,2.40
2022-10-23T23:06:00,pth,1.20
2022-10-23T23:09:00,pth,2.40
2022-10-23T23:10:00,pth,1.20
2022-10-23T23:12:00,pth,2.40
2022-10-23T23:13:00,pth,1.20
2022-10-23T23:15:00,pth,2.40
2022-10-23T23:17:00,pth,2.40
2022-10-23T23:19:00,pth,2.40
2022-10-23T23:20:00,pth,1.20
2022-10-23T23:22:00,pth,3.60
2022-10-23T23:24:00,pth,2.40
2022-10-23T23:26:00,pth,2.40
2022-10-23T23:27:00,pth,1.20
2022-10-23T23:29:00,pth,2.40
2022-10-23T23:31:00,pth,2.40
2022-10-23T23:33:00,pth,3.60
2022-10-23T23:35:00,pth,2.40
2022-10-23T23:37:00,pth,2.40
2022-10-23T23:39:00,pth,2.40
2022-10-23T23:41:00,pth,2.40
2022-10-23T23:43:00,pth,2.40
2022-10-23T23:45:00,pth,2.40
2022-10-23T23:47:00,pth,2.40
2022-10-23T23:49:00,pth,2.40
2022-10-23T23:51:00,pth,2.40
2022-10-23T23:53:00,pth,2.40
2022-10-23T23:55:00,pth,2.40
2022-10-23T23:57:00,pth,2.40
2022-10-23T23:58:00,pth,1.20
